Regional Weather Roundup
Issued by NWS Lake Charles, LA

Home | Current Version | Previous Version | Text Only | Print | Product List | Glossary On
Versions: 1 2 3 4 5 6 7 8 9 10 11 12 13 14 15 16 17 18 19 20 21 22 23 24 25 26 27
000
ASUS44 KLCH 070810
RWRLCH
REGIONAL WEATHER ROUNDUP
NATIONAL WEATHER SERVICE LAKE CHARLES LA
200 AM CST WED DEC 07 2016

Note: "fair" indicates few or no clouds below 12,000 feet with no
significant weather and/or obstructions to visibility.


ACROSS SOUTHEAST TEXAS

CITY           SKY/WX    TMP DP  RH WIND       PRES   REMARKS
BEAUMONT       CLOUDY    55  52  89 N7        30.03R
BEAUMONT CITY  CLOUDY    53  51  93 N3        30.04R
ORANGE         CLOUDY   N/A N/A N/A CALM      30.05R
JASPER         FOG       52  52  99 CALM      30.06S VSB 1
$$

ACROSS CENTRAL LOUISIANA

CITY           SKY/WX    TMP DP  RH WIND       PRES   REMARKS
LEESVILLE      CLOUDY    52  51  97 CALM      30.03S
FULLERTON      CLOUDY    52  51  97 CALM      30.01S FOG
ALEXANDRIA INT CLOUDY    51  49  92 E6        30.03S
ESLER FIELD    CLOUDY    51  50  96 CALM      30.05R
DERIDDER       CLOUDY    53  52  96 CALM      30.05S
OAKDALE        CLOUDY    53  51  92 E3        30.04R
OPELOUSAS      CLOUDY    52  50  93 NE3       30.04R
$$

ACROSS SOUTHWEST AND SOUTH CENTRAL LOUISIANA

CITY           SKY/WX    TMP DP  RH WIND       PRES   REMARKS
SULPHUR        CLOUDY    56  54  93 NE6       30.04R
LAKE CHARLES   CLOUDY    55  53  93 NE7       30.03R
CHENNAULT INT  CLOUDY    54  52  93 NE5       30.04R
CAMERON PHI    NOT AVBL
DEQUINCY       CLOUDY    53  52  94 CALM      30.04R
JENNINGS       CLOUDY    54  52  94 NE5       30.03S
LAFAYETTE      CLOUDY    55  53  93 NE5       30.03R
NEW IBERIA     CLOUDY    55  51  86 E8        30.03S
ABBEVILLE      CLOUDY    54  54 100 NE5       30.03S
PATTERSON      CLOUDY   N/A N/A N/A NE7       30.03S
SALT POINT     NOT AVBL
$$

SELECTED SITES ACROSS THE REGION

CITY           SKY/WX    TMP DP  RH WIND       PRES   REMARKS
HOUSTON BUSH   CLOUDY    51  48  89 N7        30.04S
HOUSTON HOBBY  CLOUDY    51  49  92 N9        30.04R
GALVESTON      CLEAR     56  52  86 N12       30.03S
COLLEGE STAT   CLOUDY    49  47  93 CALM      30.06R
CONROE         CLOUDY    51  48  89 N6        30.04F
HUNTSVILLE     CLOUDY    51  46  83 CALM      30.05S
LUFKIN         CLOUDY    50  49  96 CALM      30.04S
SHREVEPORT     CLOUDY    51  49  92 CALM      30.05R
MONROE         CLOUDY    48  45  89 N3        30.07S
NATCHEZ MS     CLOUDY    48  46  93 CALM      30.04S
BATON ROUGE    CLOUDY    53  51  93 E5        30.04R
N.O. INTL ARPT CLOUDY    56  55  97 N6        30.04R
SLIDELL        CLOUDY    54  52  93 N6        30.03S
$$

MARINE REPORTS

STATION/POSITION TIME  SKY/WX   TEMP    WIND        PRES    VSBY
                                AIR SEA DIR/SP/G
                 (UTC)          (F)     (DEG/KT/KT) (MB)    (MI)
BUOY 30 S HIGH I 0750            59 65  360/ 14/ 16 1016.3R
WVE H/P(F/S)=  2/ 6

SEA RIM ST PARK  0800            54     360/  7/ 10 1017.2R
PORT ARTHUR      0748               58  350/  3/  4 1016.8R
SABINE PASS N    0736            56 60   10/  6/  9 1017.7R
TEXAS POINT      NOT AVBL
CALCASIEU PASS   0736            55 60   40/  6/  9   N/A
LK CHARLES BEACH 0736            54 57              1017.2R
MARSH ISLAND     0700            57                   N/A
FRESH WATER LOCK 0736            56 62   50/  7/ 10 1016.8S
AMERADA PASS     0736            54 61   60/  5/  8 1016.4R
$$




USA.gov is the U.S. government's official web portal to all federal, state and local government web resources and services.